This demonstration page uses our WeatherBlox Daily Observations layout. Learn more.

41.55636, -103.73856

Hourly Observations for January 26, 2019

Temp ( °F °C ) Dew Point ( °F °C ) Humidity (%) Winds ( mph kmh ) Pressure ( in mb ) Visibility ( mi km ) Precip ( " mm )
12:58 am 00:58 Mostly Cloudy 28 -2.4 18 -7.6 68 68 WNW 23 37 30.19 1022 10 16.0934 N/A
1:58 am 01:58 Mostly Cloudy 29 -1.8 19 -7.4 66 66 WNW 23 37 30.19 1022 10 16.0934 N/A
2:58 am 02:58 Clear 27 -2.9 17 -8.1 68 68 WNW 21 33 30.23 1024 10 16.0934 N/A
3:58 am 03:58 Mostly Clear 26 -3.2 18 -7.9 70 70 WNW 21 33 30.23 1024 10 16.0934 N/A
4:58 am 04:58 Clear 24 -4.3 17 -8.5 73 73 NW 17 28 30.22 1023 10 16.0934 N/A
5:58 am 05:58 Clear 24 -4.5 16 -9 71 71 NW 18 30 30.23 1024 10 16.0934 N/A
6:58 am 06:58 Clear 23 -5 16 -9 74 74 NW 17 28 30.23 1024 10 16.0934 N/A
7:58 am 07:58 Clear 21 -5.9 14 -9.9 74 74 WNW 16 26 30.22 1023 10 16.0934 N/A
8:58 am 08:58 Mostly Cloudy 23 -5 15 -9.4 72 72 NW 17 28 30.22 1023 10 16.0934 N/A
9:58 am 09:58 Mostly Cloudy 25 -4 16 -9.1 68 68 NW 18 30 30.2 1023 10 16.0934 N/A
10:58 am 10:58 Partly Cloudy 24 -4.2 15 -9.3 68 68 NW 21 33 30.19 1022 10 16.0934 N/A
11:58 am 11:58 Mostly Cloudy 25 -4.1 16 -9.1 69 69 NW 20 31 30.18 1022 10 16.0934 N/A
12:58 pm 12:58 Partly Cloudy 27 -2.9 17 -8.2 67 67 WNW 32 52 30.14 1021 10 16.0934 N/A
1:58 pm 13:58 Mostly Cloudy 26 -3.6 17 -8.3 70 70 WNW 22 35 30.16 1021 10 16.0934 N/A
2:58 pm 14:58 Cloudy 28 -2.3 19 -7.4 68 68 WNW 36 57 30.16 1021 10 16.0934 N/A
3:58 pm 15:58 Mostly Cloudy 29 -1.9 19 -7.3 67 67 WNW 28 44 30.21 1023 10 16.0934 N/A
4:58 pm 16:58 Mostly Cloudy 30 -1 20 -6.7 66 66 WNW 30 48 30.21 1023 10 16.0934 N/A
5:58 pm 17:58 Partly Cloudy 32 0 21 -6 64 64 WNW 30 48 30.21 1023 10 16.0934 N/A
6:58 pm 18:58 Mostly Cloudy 32 -0.1 20 -6.4 63 63 WNW 30 48 30.2 1023 10 16.0934 N/A
7:58 pm 19:58 Windy with Snow Showers Likely 32 0 22 -5.8 65 65 WNW 25 41 30.21 1023 10 16.0934 N/A
8:58 pm 20:58 Cloudy 33 0.8 22 -5.5 63 63 NW 24 39 30.19 1022 10 16.0934 N/A
9:58 pm 21:58 Windy with Rain Showers Likely 35 1.5 24 -4.5 65 65 NNW 20 31 30.19 1022 10 16.0934 N/A
10:58 pm 22:58 Mostly Cloudy 35 1.8 23 -5 61 61 NNW 28 44 30.19 1022 10 16.0934 N/A

Powered by AerisWeather